SL-24 R/B, 40541

Orbit data source: Space-Track

SL-24 R/B, 40541 is space debris in SSO originally from a launch on Wed, 25 Mar 2015 UTC launched from the Orenburg, Russia (OREN). Debris objects in space refer to the collection of defunct objects orbiting the Earth. Examples of debris include non-operational satellites, rocket bodies, and fragments generated from explosions, collisions, or faulty payload assembly.

Loading next visibility...
Identifier
40541, 2015-014C
Orbit
SSO
Country
Flag of CISCIS
Related business
Manufacturer
Yuzhnoe
Mission
Spacecraft
Bus & Motor
15A18-BR, Unknown motor
Mass
~1,000 kg wet, ~1,000 kg dry
Launch date (UTC)
2015-03-25 (11 years ago)
Launch vehicle
Unknown
Launch site
Orenburg, Russia (OREN)
Object type
Payload
Rocket body
Debris
Shape & HBR
Cyl, 2.1 m
Radar Cross Section
10.603 m², Large (>1 m²)

Expand to show TLE details & history
Last TLE update: 6 hours ago

TLE from 6 hours ago
0 SL-24 R/B
1 40541U 15014C   26257.88391576  .00000121  00000-0  39699-4 0  9998
2 40541  97.3540  52.4013 0609721 355.5648   4.0248 13.77878418576145
Epoch: 2026-09-14T21:12Z
TLE epoch observation values (Epoch: 2026-09-14T21:12:50.321Z)
Latitude
-0.00008°
Longitude
100.33382°
Altitude
527.38 km
Speed
7.827 km/s
True Right ascension
03h 29m 36s
True Declination
0° 00' 00"
Sunlit
Object was in full shadow at epoch
Visualization orbit readout
Latitude
Unknown
Longitude
Unknown
Altitude
Unknown
Speed
Unknown
Apparent Right ascension
Unknown
Apparent Declination
Unknown
Sunlit
N/A
Visualization observer readout
Local Sidereal Time
20:05:30
Azimuth
Unknown
Elevation
Unknown
Doppler factor
Unknown
Orbital elements
Apogee altitude
1,416.505 km
Perigee altitude
520.618 km
Semi-major axis
7,346.699 km
Eccentricity
0.06097
Inclination
97.354°
RAAN
52.4013°
Arg. of periapsis
355.5648°
True anomaly
4.55539°
Mean anomaly
4.0248°
Eccentric anomaly
4.28588°
Mean motion
3.44671 °/min
Orbital period
104.45 mins
BSTAR
0.000039699
Loading maneuver chart data...
Computing Atmospheric mass density...
Loading historical data...
Loading historical data...
Loading historical data...
Loading historical data...
Loading historical data...
Loading historical data...
Loading historical data...
Other satellites on launch #14 in the year 2015 (2015-03-25 UTC)

Documentation

Showing up to 5 results
|